[[{"header":{"parameterUnit":"m.s-1","parameterCategory":2,"la1":30.2991,"la2":30.254,"lo1":-89.0895,"lo2":-89.0444,"dy":0.0017,"dx":0.0017,"nx":28,"ny":28,"refTime":"2025-12-20T09:00:00:Z","depth":"0","parameterNumber":2,"parameterNumberName":"U-component_of_CURRENTS"},"data":[0,0,0,0,0,0,0,0,0,0,0,0,0,0,0,0,0,0,0,0,0,0,0,0,0,0,0,0,0,0,0,0,0,0,0,0,0,0,0,0,0,0,0,0,0,0,0,0,0,0,0,0,0,0,0,0,0,0,0.2516,0.2515,0,0.2421,0.242,0.2419,0.2356,0.2356,0.2355,0.2355,0.2315,0.2315,0.2314,0,0,0,0,0,0,0,0,0,0,0,0,0,0.2669,0.2667,0.2516,0.2515,0.2514,0.2421,0.242,0.2419,0.2356,0.2356,0.2355,0.2355,0.2316,0.2315,0.2314,0,0,0,0,0,0,0,0,0,0,0,0,0,0.2591,0.2666,0.2516,0.2471,0.2466,0.2421,0.242,0.2418,0.2356,0.2356,0.2355,0.2355,0.2316,0.2315,0.2314,0.232,0,0,0.2311,0.231,0,0,0,0,0,0,0,0,0.2596,0.2586,0.2479,0.2474,0.2469,0.24,0.2459,0.2388,0.2356,0.2398,0.2355,0.2354,0.2349,0.2345,0.2328,0.2318,0.2317,0.2311,0.231,0.231,0.2309,0,0,0,0,0,0,0,0.2601,0.259,0.2478,0.2478,0.2472,0.2465,0.2453,0.2445,0.2379,0.2394,0.239,0.2379,0.2347,0.2329,0.2327,0.2316,0.2311,0.231,0.2309,0.2309,0.2331,0.2332,0,0,0,0,0,0,0.2612,0.2594,0.2481,0.2476,0.2532,0.2463,0.2449,0.2423,0.2378,0.237,0.238,0.2377,0.2331,0.2328,0.2325,0.2348,0.231,0.2309,0.2308,0.233,0.2331,0.2333,0,0,0,0,0,0,0.2615,0.2602,0.2485,0.2534,0.2519,0.246,0.2431,0.2421,0.2404,0.2366,0.2359,0.2374,0.2331,0.2327,0.2326,0.2346,0.2308,0.2307,0.2329,0.233,0.2332,0.2383,0,0,0,0,0,0,0.262,0.2603,0.2594,0.2534,0.2516,0.2463,0.2431,0.242,0.2399,0.2394,0.2359,0.2354,0.233,0.2327,0.2325,0.2344,0.2307,0.2327,0.2329,0.2332,0.238,0.2386,0.2392,0,0,0,0,0,0.2625,0.2614,0.2594,0.258,0.2502,0.2463,0.2453,0.2411,0.2399,0.2394,0.2376,0.2355,0.234,0.2327,0.2324,0.2343,0.2326,0.2329,0.2331,0.2377,0.2385,0.2391,0,0,0,0,0,0,0.2676,0.2605,0.2581,0.2548,0.2511,0.2452,0.2446,0.2419,0.2398,0.2401,0.2366,0.2361,0.2369,0.2353,0.234,0.2358,0.2332,0.2334,0.2368,0.2375,0.2381,0.2382,0.2306,0,0,0,0,0,0.2683,0.2654,0.2593,0.2569,0.2555,0.2505,0.2486,0.2458,0.2429,0.2417,0.2391,0.2378,0.2378,0.2373,0.2365,0.2373,0.237,0.2385,0.2392,0.2397,0.2397,0.2426,0.2434,0.2342,0.2342,0.2342,0,0,0.2696,0.2656,0.2638,0.2579,0.255,0.2524,0.2492,0.247,0.2454,0.2421,0.2403,0.2399,0.2386,0.2393,0.2396,0.238,0.2421,0.24,0.2404,0.2402,0.243,0.2439,0.2447,0.2343,0.2343,0.2343,0,0,0.2708,0.2675,0.2653,0.2628,0.2586,0.2553,0.255,0.2497,0.2482,0.2468,0.2449,0.2458,0.2438,0.2436,0.2434,0.2472,0.2455,0.2473,0.2499,0.2528,0.2535,0.2542,0.2546,0.2553,0.2472,0.2472,0.2472,0,0.2724,0.268,0.2646,0.2627,0.2606,0.2568,0.2548,0.2531,0.2485,0.2486,0.2471,0.247,0.246,0.2481,0.2491,0.2486,0.249,0.2471,0.2536,0.2542,0.2548,0.2551,0.2558,0.2475,0.2475,0.2475,0.2474,0,0.2713,0.2687,0.2681,0.2633,0.2616,0.2597,0.2566,0.2557,0.254,0.2522,0.2539,0.2529,0.2527,0.2534,0.2521,0.2563,0.2548,0.2543,0.2516,0.2561,0.256,0.2567,0.2479,0.2478,0.2477,0.2477,0,0,0.2707,0.2674,0.2669,0.2651,0.2617,0.2594,0.2596,0.2574,0.2579,0.2566,0.2577,0.2588,0.259,0.2589,0.2584,0.2607,0.2653,0.2594,0.2594,0.2595,0.2703,0.2626,0.2625,0.2663,0.2665,0.2666,0.2684,0,0.2696,0.2666,0.2652,0.2626,0.2603,0.2592,0.2591,0.2586,0.2584,0.2592,0.2612,0.2621,0.2609,0.2617,0.2642,0.2654,0.2673,0.2647,0.2661,0.2661,0.2586,0.2631,0.2464,0.246,0.269,0.2691,0.2691,0,0.2669,0.2653,0.2628,0.261,0.2602,0.2589,0.2586,0.2585,0.2612,0.2621,0.265,0.2658,0.2694,0.2677,0.2721,0.2707,0.2708,0.2714,0.2715,0.2628,0.2596,0.2454,0.2462,0.2352,0.2701,0.27,0.2699,0,0.2652,0.2627,0.2606,0.2598,0.2581,0.258,0.2575,0.2595,0.2604,0.2646,0.2661,0.2704,0.2719,0.2749,0.2754,0.2746,0.2796,0.2786,0.2715,0.2708,0.2559,0.2537,0.2457,0.2817,0.2817,0.2817,0.2817,0,0.2623,0.2602,0.2597,0.2584,0.2567,0.2572,0.2571,0.2582,0.2618,0.263,0.2674,0.2688,0.274,0.2766,0.2775,0.276,0.2814,0.2724,0.2714,0.257,0.255,0.2441,0.2424,0.2818,0.2818,0.2817,0.2817,0,0.2588,0.2586,0.256,0.2556,0.2552,0.2542,0.2551,0.2557,0.2601,0.2621,0.2637,0.269,0.2711,0.2746,0.2786,0.2768,0.2665,0.2753,0.2567,0.2535,0.2348,0.2341,0.2178,0.2113,0.2675,0.2674,0.2672,0,0.2559,0.2546,0.2537,0.252,0.2511,0.2505,0.2499,0.2539,0.2547,0.2606,0.2608,0.2649,0.2637,0.2669,0.2648,0.2641,0.2573,0.2494,0.2447,0.2315,0.2302,0.2209,0.216,0.227,0.2265,0.2261,0.2258,0,0.251,0.2514,0.2503,0.2467,0.245,0.2428,0.2425,0.2431,0.2477,0.2491,0.2499,0.2502,0.2517,0.2426,0.2427,0.241,0.2319,0.2415,0.2329,0.202,0.1862,0.18,0.2276,0.2224,0.2228,0.223,0.2232,0.2233,0.2477,0.2455,0.2438,0.2389,0.2372,0.2317,0.2267,0.2278,0.2261,0.2233,0.233,0.2262,0.2234,0.219,0.217,0.2001,0.2065,0.1907,0.1923,0.185,0.1734,0.2126,0.2036,0.2038,0.204,0.2042,0.2043,0,0.2399,0.2378,0.2347,0.2277,0.221,0.2221,0.2181,0.2112,0.2039,0.2048,0.2021,0.1907,0.179,0.1763,0.163,0.1528,0.1449,0.1463,0.1292,0.1286,0.1664,0.1592,0.1337,0.1337,0.1337,0.1337,0.1338,0.1338,0.2358,0.2292,0.2262,0.2114,0.2064,0.1925,0.1871,0.18,0.1766,0.1631,0.1537,0.1531,0.1494,0.1335,0.117,0.1134,0.1026,0.0915,0.0986,0.1244,0.1286,0.1326,0.1251,0.0929,0.0929,0.0481,0.0478,0.0475]},{"header":{"parameterUnit":"m.s-1","parameterCategory":2,"la1":30.2991,"la2":30.254,"lo1":-89.0895,"lo2":-89.0444,"dy":0.0017,"dx":0.0017,"nx":28,"ny":28,"refTime":"2025-12-20T09:00:00:Z","depth":"0","parameterNumber":3,"parameterNumberName":"V-component_of_CURRENTS"},"data":[0,0,0,0,0,0,0,0,0,0,0,0,0,0,0,0,0,0,0,0,0,0,0,0,0,0,0,0,0,0,0,0,0,0,0,0,0,0,0,0,0,0,0,0,0,0,0,0,0,0,0,0,0,0,0,0,0,0,0.0164,0.0164,0,0.0184,0.0184,0.0185,0.0183,0.0183,0.0183,0.0183,0.0167,0.0167,0.0166,0,0,0,0,0,0,0,0,0,0,0,0,0,0.0101,0.0102,0.0164,0.0164,0.0165,0.0184,0.0184,0.0185,0.0183,0.0183,0.0183,0.0183,0.0167,0.0167,0.0166,0,0,0,0,0,0,0,0,0,0,0,0,0,0.0123,0.0102,0.0164,0.0168,0.0169,0.0184,0.0184,0.0185,0.0183,0.0183,0.0183,0.0183,0.0167,0.0167,0.0166,0.0165,0,0,0.0164,0.0164,0,0,0,0,0,0,0,0,0.0122,0.0125,0.0167,0.0168,0.0169,0.0183,0.0156,0.0177,0.0183,0.0175,0.0183,0.0183,0.0171,0.017,0.0171,0.0164,0.0164,0.0164,0.0164,0.0164,0.0164,0,0,0,0,0,0,0,0.012,0.0124,0.017,0.0168,0.0169,0.0162,0.0165,0.016,0.0171,0.0176,0.0176,0.0183,0.0171,0.0171,0.0171,0.0163,0.0164,0.0164,0.0164,0.0163,0.0161,0.0161,0,0,0,0,0,0,0.0124,0.0123,0.0169,0.017,0.0147,0.0163,0.0166,0.0177,0.0172,0.0172,0.0183,0.0183,0.0172,0.0171,0.017,0.0188,0.0164,0.0163,0.0163,0.0161,0.0161,0.0162,0,0,0,0,0,0,0.0123,0.0128,0.0168,0.0149,0.0154,0.0165,0.0176,0.0177,0.0181,0.0178,0.0177,0.0186,0.0172,0.0171,0.0173,0.0186,0.0163,0.0163,0.0161,0.0161,0.0161,0.0211,0,0,0,0,0,0,0.0121,0.0128,0.0132,0.0149,0.0155,0.0184,0.0177,0.0178,0.0186,0.0186,0.018,0.0179,0.0172,0.0174,0.0172,0.0185,0.0162,0.016,0.0161,0.0161,0.0209,0.0213,0.0216,0,0,0,0,0,0.0119,0.0132,0.0133,0.0138,0.0163,0.0184,0.0186,0.0192,0.0187,0.0193,0.0189,0.0179,0.0176,0.0174,0.0172,0.0185,0.016,0.0161,0.0161,0.0207,0.0212,0.0216,0,0,0,0,0,0,0.0104,0.0133,0.0135,0.0155,0.017,0.0185,0.0194,0.0194,0.0196,0.0195,0.0185,0.0183,0.019,0.0178,0.0176,0.0184,0.0165,0.0165,0.02,0.0205,0.0209,0.0225,0.0162,0,0,0,0,0,0.0104,0.0122,0.0144,0.0159,0.017,0.018,0.0188,0.0193,0.02,0.0201,0.0197,0.0191,0.019,0.019,0.0186,0.0191,0.0183,0.0196,0.02,0.0203,0.0215,0.0219,0.0225,0.0163,0.0163,0.0163,0,0,0.0101,0.012,0.0129,0.0157,0.017,0.0196,0.0185,0.0204,0.0221,0.0198,0.0216,0.0205,0.0194,0.0203,0.0204,0.0196,0.0213,0.0204,0.0207,0.0217,0.0221,0.0227,0.0232,0.0164,0.0164,0.0164,0,0,0.0119,0.0125,0.0153,0.0171,0.0197,0.0205,0.0212,0.0231,0.0234,0.0247,0.0236,0.0236,0.0231,0.0233,0.0231,0.0251,0.0233,0.0242,0.0277,0.0282,0.0288,0.0292,0.0279,0.0283,0.0245,0.0245,0.0245,0,0.0115,0.0157,0.0162,0.0196,0.0216,0.0213,0.0247,0.0252,0.0265,0.028,0.0259,0.0267,0.025,0.0274,0.0274,0.0262,0.0254,0.0264,0.0289,0.0293,0.0297,0.0283,0.0286,0.0247,0.0247,0.0247,0.0247,0,0.0164,0.0193,0.0213,0.0256,0.0269,0.03,0.0311,0.0323,0.0321,0.0331,0.0349,0.0325,0.0334,0.0322,0.0302,0.0325,0.0305,0.0293,0.0281,0.0307,0.0289,0.0292,0.0251,0.025,0.0249,0.0249,0,0,0.0178,0.0238,0.0245,0.0279,0.0308,0.033,0.0354,0.039,0.0426,0.0413,0.0454,0.0431,0.0418,0.0413,0.0387,0.0383,0.0389,0.0349,0.0349,0.0344,0.0388,0.037,0.037,0.0383,0.0384,0.0385,0.0361,0,0.0222,0.03,0.0309,0.0373,0.0417,0.0417,0.0446,0.0468,0.0481,0.0516,0.0492,0.0515,0.0453,0.0459,0.0443,0.0413,0.0399,0.0396,0.0358,0.0357,0.0344,0.0374,0.0405,0.0387,0.0363,0.0363,0.0364,0,0.0277,0.0325,0.0397,0.0455,0.0473,0.05,0.0555,0.0581,0.0617,0.0627,0.0635,0.0618,0.0609,0.055,0.0505,0.0506,0.0448,0.0413,0.0412,0.0383,0.0344,0.0359,0.0392,0.0373,0.0367,0.0367,0.0366,0,0.0311,0.0386,0.0446,0.0467,0.0527,0.0555,0.0583,0.0624,0.0668,0.0704,0.0742,0.0717,0.0719,0.0651,0.0557,0.0538,0.0505,0.0471,0.0398,0.0395,0.041,0.0407,0.043,0.0439,0.0439,0.0439,0.0439,0,0.0369,0.0419,0.0471,0.0509,0.0583,0.06,0.0679,0.0707,0.0763,0.0835,0.0802,0.0845,0.0745,0.0708,0.0603,0.0513,0.0538,0.0415,0.0397,0.0425,0.0424,0.0396,0.0364,0.0438,0.0438,0.0438,0.0439,0,0.041,0.0442,0.0518,0.0584,0.0606,0.0661,0.0741,0.0806,0.0847,0.0938,0.0954,0.0953,0.0906,0.0795,0.0694,0.0587,0.0472,0.0449,0.0477,0.0463,0.037,0.0339,0.0315,0.0282,0.0373,0.0373,0.0372,0,0.0446,0.049,0.0569,0.0616,0.0651,0.0729,0.0787,0.0842,0.0917,0.1008,0.1061,0.1047,0.1043,0.0884,0.0713,0.0545,0.0474,0.0447,0.0413,0.0384,0.0336,0.0311,0.0283,0.0443,0.0443,0.0443,0.0443,0,0.0516,0.0535,0.0597,0.068,0.0747,0.0829,0.0917,0.0988,0.1065,0.1141,0.122,0.1224,0.1091,0.0953,0.0728,0.0599,0.0441,0.0444,0.0424,0.0405,0.0373,0.0327,0.0423,0.0445,0.0445,0.0445,0.0445,0.0445,0.0563,0.061,0.0672,0.075,0.0824,0.0914,0.0981,0.1083,0.1191,0.1293,0.1312,0.1318,0.1154,0.0861,0.071,0.0479,0.0444,0.0403,0.0368,0.0347,0.032,0.0408,0.0403,0.0403,0.0402,0.0402,0.0402,0,0.0617,0.0659,0.0736,0.0818,0.0887,0.0919,0.1051,0.1115,0.1231,0.1324,0.1375,0.1297,0.1115,0.0889,0.0602,0.0451,0.0375,0.0364,0.0357,0.0329,0.043,0.044,0.0434,0.0434,0.0434,0.0434,0.0434,0.0434,0.0648,0.0712,0.0737,0.0839,0.0896,0.0975,0.1043,0.1149,0.1232,0.1303,0.1301,0.1297,0.1181,0.0793,0.0532,0.0438,0.033,0.0299,0.0228,0.0329,0.0331,0.0333,0.0338,0.0311,0.0311,0.0163,0.0162,0.0161]}],[{"header":{"parameterUnit":"m.s-1","parameterCategory":2,"la1":30.2991,"la2":30.254,"lo1":-89.0895,"lo2":-89.0444,"dy":0.0017,"dx":0.0017,"nx":28,"ny":28,"refTime":"2025-12-20T09:00:00:Z","depth":"2","parameterNumber":2,"parameterNumberName":"U-component_of_CURRENTS"},"data":[0,0,0,0,0,0,0,0,0,0,0,0,0,0,0,0,0,0,0,0,0,0,0,0,0,0,0,0,0,0,0,0,0,0,0,0,0,0,0,0,0,0,0,0,0,0,0,0,0,0,0,0,0,0,0,0,0,0,0.2042,0.2042,0,0.2051,0.2051,0.2051,0.2051,0.2051,0.2052,0.2052,0.2049,0.2049,0.2049,0,0,0,0,0,0,0,0,0,0,0,0,0,0.2032,0.2032,0.2042,0.2042,0.2043,0.2051,0.2051,0.2051,0.2051,0.2051,0.2052,0.2052,0.2049,0.2049,0.2049,0,0,0,0,0,0,0,0,0,0,0,0,0,0.2037,0.2032,0.2042,0.2045,0.2046,0.2051,0.2051,0.2051,0.2051,0.2051,0.2052,0.2052,0.2049,0.2049,0.2049,0.2046,0,0,0.2048,0.2048,0,0,0,0,0,0,0,0,0.2036,0.2037,0.2045,0.2045,0.2046,0.2052,0.2046,0.2049,0.2051,0.2047,0.2052,0.2052,0.205,0.205,0.2049,0.2046,0.2046,0.2048,0.2048,0.2048,0.2048,0,0,0,0,0,0,0,0.2036,0.2036,0.2044,0.2045,0.2046,0.2048,0.2049,0.2047,0.2047,0.2048,0.2048,0.2052,0.205,0.2049,0.2049,0.2046,0.2048,0.2048,0.2048,0.2048,0.2091,0.2092,0,0,0,0,0,0,0.2038,0.2036,0.2044,0.2044,0.2043,0.2049,0.2049,0.2048,0.2047,0.2047,0.2052,0.2052,0.2049,0.2049,0.2049,0.2088,0.2048,0.2048,0.2048,0.209,0.2092,0.2093,0,0,0,0,0,0,0.2038,0.2038,0.2043,0.2042,0.2043,0.2049,0.2048,0.2048,0.2059,0.205,0.205,0.2063,0.2049,0.2049,0.2062,0.2086,0.2048,0.2048,0.2088,0.209,0.2092,0.2138,0,0,0,0,0,0,0.2037,0.2038,0.2043,0.2042,0.2043,0.2056,0.2048,0.2049,0.2061,0.2061,0.206,0.2059,0.2049,0.2063,0.2062,0.2085,0.2047,0.2087,0.2089,0.2092,0.2135,0.2141,0.2147,0,0,0,0,0,0.2037,0.2039,0.2043,0.2045,0.2048,0.2056,0.2058,0.206,0.2061,0.2069,0.2072,0.2059,0.2078,0.2063,0.2063,0.2086,0.2086,0.2089,0.2091,0.2132,0.214,0.2147,0,0,0,0,0,0,0.2033,0.204,0.2044,0.2048,0.2058,0.2057,0.2065,0.2068,0.2076,0.2081,0.207,0.207,0.2094,0.2084,0.2068,0.2107,0.2082,0.2085,0.2113,0.212,0.2126,0.2131,0.2047,0,0,0,0,0,0.2037,0.2044,0.205,0.2056,0.2062,0.2067,0.2073,0.2079,0.2083,0.2087,0.2086,0.2091,0.2103,0.2106,0.2112,0.2127,0.2127,0.2144,0.215,0.2155,0.2159,0.219,0.2199,0.2102,0.2102,0.2102,0,0,0.2042,0.2043,0.205,0.2057,0.2064,0.2075,0.207,0.2086,0.2101,0.2086,0.2106,0.2112,0.2113,0.2135,0.2145,0.213,0.2181,0.2158,0.2162,0.2164,0.2194,0.2203,0.2212,0.2104,0.2104,0.2103,0,0,0.2046,0.2052,0.2061,0.2069,0.2084,0.209,0.2098,0.2109,0.212,0.2142,0.2141,0.2162,0.2171,0.2179,0.2184,0.2225,0.2214,0.223,0.2259,0.2289,0.2298,0.2305,0.2311,0.2318,0.223,0.223,0.223,0,0.2051,0.2056,0.2066,0.2072,0.2081,0.2099,0.2111,0.2127,0.2143,0.2159,0.2157,0.2194,0.2194,0.2225,0.2242,0.2238,0.2246,0.223,0.2297,0.2304,0.2311,0.2315,0.2323,0.2232,0.2232,0.2232,0.2231,0,0.2055,0.2066,0.2071,0.2087,0.2102,0.2115,0.2139,0.2161,0.2181,0.2199,0.2242,0.2249,0.2271,0.2279,0.2273,0.2322,0.2309,0.2303,0.2278,0.2323,0.2325,0.2332,0.2236,0.2235,0.2234,0.2234,0,0,0.2044,0.2069,0.2072,0.2084,0.211,0.2122,0.2158,0.2192,0.2222,0.2252,0.2289,0.232,0.2334,0.234,0.2341,0.2367,0.2418,0.2358,0.2359,0.2361,0.2475,0.2393,0.2393,0.2428,0.243,0.2431,0.2455,0,0.2044,0.2057,0.2073,0.21,0.2112,0.2142,0.2171,0.2212,0.225,0.2291,0.2323,0.2359,0.2354,0.2372,0.2401,0.2418,0.244,0.2411,0.2433,0.2433,0.2353,0.24,0.2183,0.218,0.2461,0.2463,0.2463,0,0.2037,0.205,0.2067,0.2109,0.2117,0.2139,0.2195,0.2228,0.2294,0.2328,0.2377,0.2399,0.2448,0.2435,0.2491,0.2476,0.2482,0.2488,0.2489,0.2402,0.2365,0.2182,0.2181,0.2475,0.2474,0.2473,0.2472,0,0.2014,0.2048,0.2059,0.2069,0.2116,0.2139,0.2176,0.2241,0.2278,0.2357,0.2392,0.245,0.2483,0.2513,0.253,0.2521,0.2582,0.2566,0.2493,0.2487,0.2299,0.2273,0.2604,0.2604,0.2604,0.2604,0.2603,0,0.1995,0.2007,0.2052,0.2056,0.2085,0.2133,0.2175,0.2227,0.2302,0.2343,0.2411,0.2443,0.2509,0.2544,0.2552,0.2544,0.2601,0.2506,0.2495,0.2307,0.2283,0.2535,0.2527,0.2604,0.2604,0.2604,0.2604,0,0.1957,0.198,0.2001,0.2054,0.2069,0.2096,0.2165,0.2201,0.2284,0.234,0.2367,0.2458,0.2499,0.254,0.2587,0.256,0.2565,0.2543,0.2308,0.2269,0.2441,0.2435,0.2466,0.2463,0.2461,0.2459,0.2458,0,0.1936,0.1939,0.1988,0.1998,0.2019,0.2063,0.2089,0.2179,0.2214,0.2329,0.2346,0.2423,0.2432,0.2474,0.2444,0.2434,0.2515,0.2233,0.2172,0.2445,0.2431,0.2428,0.2425,0.1939,0.1933,0.1929,0.1925,0,0.1898,0.1914,0.1929,0.195,0.1975,0.1997,0.2045,0.2065,0.2162,0.2203,0.2249,0.2272,0.2309,0.2192,0.2196,0.2167,0.2218,0.2138,0.2494,0.2009,0.195,0.1936,0.195,0.1884,0.1888,0.1891,0.1894,0.1895,0.1868,0.1868,0.1885,0.1893,0.1916,0.1916,0.1902,0.1942,0.196,0.1985,0.2078,0.2033,0.2049,0.1924,0.1855,0.1808,0.1976,0.1884,0.1897,0.1915,0.1852,0.1793,0.1684,0.1687,0.1689,0.1691,0.1693,0,0.182,0.1818,0.1828,0.1823,0.1805,0.1848,0.1851,0.1807,0.1768,0.1798,0.1799,0.163,0.1529,0.1552,0.1399,0.1396,0.1379,0.1345,0.13,0.1342,0.1379,0.1287,0.097,0.0968,0.0966,0.0964,0,0,0.1791,0.1768,0.1761,0.17,0.17,0.1641,0.162,0.1565,0.1542,0.1462,0.1404,0.1477,0.1504,0.1222,0.118,0.1043,0.1189,0.0999,0.158,0.157,0.1605,0.1691,0.1597,0,0,0,0,0]},{"header":{"parameterUnit":"m.s-1","parameterCategory":2,"la1":30.2991,"la2":30.254,"lo1":-89.0895,"lo2":-89.0444,"dy":0.0017,"dx":0.0017,"nx":28,"ny":28,"refTime":"2025-12-20T09:00:00:Z","depth":"2","parameterNumber":3,"parameterNumberName":"V-component_of_CURRENTS"},"data":[0,0,0,0,0,0,0,0,0,0,0,0,0,0,0,0,0,0,0,0,0,0,0,0,0,0,0,0,0,0,0,0,0,0,0,0,0,0,0,0,0,0,0,0,0,0,0,0,0,0,0,0,0,0,0,0,0,0,0.0173,0.0173,0,0.0182,0.0182,0.0182,0.0176,0.0176,0.0176,0.0176,0.0163,0.0163,0.0163,0,0,0,0,0,0,0,0,0,0,0,0,0,0.0137,0.0137,0.0173,0.0173,0.0174,0.0182,0.0182,0.0181,0.0176,0.0176,0.0176,0.0176,0.0164,0.0163,0.0163,0,0,0,0,0,0,0,0,0,0,0,0,0,0.0148,0.0138,0.0173,0.0173,0.0173,0.0182,0.0182,0.0181,0.0176,0.0176,0.0176,0.0176,0.0164,0.0163,0.0163,0.0164,0,0,0.0162,0.0162,0,0,0,0,0,0,0,0,0.0148,0.0149,0.0173,0.0173,0.0173,0.0179,0.0164,0.0175,0.0176,0.0174,0.0176,0.0176,0.0168,0.0167,0.0167,0.0164,0.0163,0.0162,0.0162,0.0162,0.0161,0,0,0,0,0,0,0,0.0147,0.0149,0.0175,0.0173,0.0173,0.0167,0.0169,0.0166,0.017,0.0174,0.0174,0.0177,0.0168,0.0168,0.0167,0.0163,0.0162,0.0162,0.0161,0.0161,0.0161,0.0161,0,0,0,0,0,0,0.015,0.0148,0.0175,0.0175,0.0161,0.0168,0.017,0.0176,0.0171,0.017,0.0177,0.0177,0.0168,0.0167,0.0166,0.018,0.0162,0.0161,0.0161,0.0161,0.0161,0.0161,0,0,0,0,0,0,0.0149,0.0152,0.0174,0.0163,0.0165,0.0169,0.0176,0.0176,0.0178,0.0174,0.0172,0.0179,0.0168,0.0167,0.0169,0.0179,0.0161,0.0161,0.0161,0.0161,0.0161,0.0199,0,0,0,0,0,0,0.0148,0.0152,0.0156,0.0163,0.0166,0.0183,0.0177,0.0177,0.0181,0.018,0.0175,0.0173,0.0168,0.017,0.0169,0.0178,0.0161,0.016,0.0161,0.0161,0.0197,0.02,0.0203,0,0,0,0,0,0.0147,0.0156,0.0156,0.0159,0.0172,0.0183,0.0184,0.0185,0.0181,0.0184,0.0182,0.0173,0.0171,0.017,0.0169,0.0178,0.016,0.0161,0.0161,0.0196,0.02,0.0203,0,0,0,0,0,0,0.0144,0.0157,0.0157,0.017,0.0176,0.0183,0.0187,0.0187,0.0187,0.0186,0.0179,0.0177,0.0182,0.0173,0.0172,0.0178,0.0163,0.0163,0.019,0.0194,0.0196,0.0208,0.016,0,0,0,0,0,0.0145,0.0154,0.0164,0.0174,0.0179,0.0182,0.0186,0.0187,0.019,0.019,0.0188,0.0184,0.0183,0.0183,0.018,0.0185,0.0172,0.0188,0.0191,0.0193,0.0201,0.0192,0.0195,0.0163,0.0163,0.0163,0,0,0.0146,0.0155,0.016,0.0174,0.0179,0.0195,0.0184,0.0193,0.0206,0.0189,0.0203,0.0194,0.0186,0.0193,0.0194,0.0187,0.0194,0.0194,0.0196,0.0203,0.0193,0.0196,0.0199,0.0163,0.0163,0.0163,0,0,0.0158,0.0162,0.0175,0.0184,0.0196,0.0201,0.0205,0.0214,0.0216,0.0227,0.0218,0.0217,0.0216,0.0215,0.0213,0.0228,0.0209,0.0223,0.0249,0.024,0.0243,0.0246,0.0228,0.0228,0.0225,0.0225,0.0225,0,0.016,0.018,0.018,0.0197,0.0211,0.0207,0.0229,0.0232,0.024,0.0251,0.0236,0.024,0.0228,0.0243,0.0245,0.0236,0.0224,0.0239,0.0245,0.0247,0.0249,0.023,0.023,0.0227,0.0227,0.0227,0.0226,0,0.0186,0.0201,0.021,0.0234,0.0246,0.0263,0.0272,0.0282,0.0283,0.029,0.0301,0.0282,0.0286,0.0278,0.0266,0.0276,0.026,0.025,0.0239,0.0255,0.0233,0.0233,0.023,0.0229,0.0228,0.0228,0,0,0.0198,0.0224,0.0228,0.0248,0.0268,0.0285,0.0307,0.0333,0.0359,0.0348,0.0375,0.036,0.0348,0.0344,0.0325,0.0313,0.0306,0.0288,0.0287,0.0275,0.0281,0.0271,0.0269,0.0298,0.0298,0.0298,0.0259,0,0.0221,0.0259,0.0267,0.0309,0.0332,0.0341,0.0367,0.0387,0.04,0.0423,0.04,0.0414,0.0374,0.0375,0.0357,0.0327,0.0307,0.0317,0.0264,0.0262,0.0256,0.0269,0.0286,0.0253,0.0258,0.0258,0.0258,0,0.0248,0.0272,0.0313,0.0356,0.0368,0.0392,0.0442,0.0466,0.0493,0.0501,0.0504,0.0487,0.0473,0.0431,0.0381,0.039,0.0337,0.0303,0.0301,0.028,0.0252,0.0239,0.0252,0.0257,0.0257,0.0257,0.0257,0,0.0265,0.0307,0.0342,0.0357,0.0402,0.0426,0.0454,0.0492,0.053,0.0553,0.0579,0.0553,0.0548,0.0484,0.0406,0.0396,0.0344,0.0322,0.026,0.0258,0.0256,0.0254,0.0278,0.0278,0.0278,0.0278,0.0279,0,0.0292,0.0322,0.0354,0.0376,0.0431,0.0452,0.0516,0.0542,0.059,0.0648,0.062,0.0648,0.0562,0.0521,0.0433,0.035,0.0363,0.027,0.0252,0.0269,0.0268,0.026,0.0258,0.0277,0.0277,0.0278,0.0278,0,0.0307,0.0325,0.0371,0.042,0.044,0.0481,0.0558,0.0609,0.0647,0.0719,0.0728,0.0726,0.068,0.0582,0.0484,0.0398,0.031,0.027,0.029,0.0276,0.0218,0.0219,0.0204,0.0204,0.0203,0.0203,0.0202,0,0.0318,0.0342,0.0401,0.0435,0.046,0.0522,0.0574,0.0631,0.0692,0.077,0.0808,0.0789,0.0784,0.0637,0.0494,0.0347,0.0313,0.0248,0.0231,0.0229,0.0213,0.0215,0.0216,0.0237,0.0237,0.0237,0.0237,0,0.0342,0.036,0.0398,0.0466,0.0521,0.059,0.0667,0.0722,0.08,0.0862,0.0928,0.0929,0.0816,0.0688,0.0493,0.0385,0.0275,0.0243,0.0246,0.0256,0.0258,0.0243,0.0243,0.0237,0.0237,0.0237,0.0237,0.0237,0.0359,0.0386,0.0435,0.0499,0.0566,0.0648,0.0706,0.0794,0.0888,0.0979,0.0994,0.0993,0.0867,0.0621,0.046,0.028,0.029,0.0207,0.0208,0.0209,0.0223,0.0224,0.0199,0.0198,0.0198,0.0198,0.0198,0,0.0381,0.0411,0.0469,0.0544,0.0613,0.0651,0.0762,0.0817,0.092,0.1002,0.1053,0.0915,0.0798,0.0632,0.0386,0.0242,0.0222,0.017,0.019,0.0192,0.0193,0.0206,0.0176,0.0176,0.0175,0.0175,0,0,0.0394,0.0441,0.0464,0.0562,0.0622,0.0713,0.0772,0.0856,0.0923,0.0983,0.0992,0.1012,0.0837,0.0647,0.0467,0.0324,0.0277,0.0279,0.0314,0.0361,0.0364,0.0236,0.0261,0,0,0,0,0]}],[{"header":{"parameterUnit":"m.s-1","parameterCategory":2,"la1":30.2991,"la2":30.254,"lo1":-89.0895,"lo2":-89.0444,"dy":0.0017,"dx":0.0017,"nx":28,"ny":28,"refTime":"2025-12-20T09:00:00:Z","depth":"4","parameterNumber":2,"parameterNumberName":"U-component_of_CURRENTS"},"data":[0,0,0,0,0,0,0,0,0,0,0,0,0,0,0,0,0,0,0,0,0,0,0,0,0,0,0,0,0,0,0,0,0,0,0,0,0,0,0,0,0,0,0,0,0,0,0,0,0,0,0,0,0,0,0,0,0,0,0.1215,0.1215,0,0.1258,0.1259,0.1259,0.1299,0.13,0.1301,0.1301,0.1355,0.1356,0.1357,0,0,0,0,0,0,0,0,0,0,0,0,0,0.1152,0.1153,0.1215,0.1215,0.1216,0.1258,0.1259,0.1259,0.1299,0.13,0.1301,0.1302,0.1355,0.1356,0.1357,0,0,0,0,0,0,0,0,0,0,0,0,0,0.1184,0.1154,0.1215,0.1242,0.1246,0.1258,0.1259,0.1259,0.1299,0.13,0.1301,0.1302,0.1355,0.1356,0.1357,0.1345,0,0,0.1361,0.1361,0,0,0,0,0,0,0,0,0.1183,0.1186,0.1238,0.1241,0.1244,0.1276,0.1257,0.1289,0.1299,0.1277,0.1301,0.1303,0.133,0.1333,0.1337,0.1348,0.135,0.1361,0.1362,0.1362,0.1363,0,0,0,0,0,0,0,0.118,0.1185,0.123,0.1238,0.1242,0.1248,0.1254,0.1263,0.1296,0.1279,0.1282,0.129,0.1332,0.1335,0.1338,0.1351,0.1361,0.1362,0.1363,0.1363,0.1447,0.1449,0,0,0,0,0,0,0.1178,0.1183,0.1229,0.1232,0.1217,0.1249,0.1255,0.1263,0.1296,0.1303,0.1289,0.1291,0.1333,0.1337,0.134,0.1407,0.1362,0.1363,0.1364,0.1446,0.1448,0.1449,0,0,0,0,0,0,0.1177,0.1182,0.1227,0.1209,0.1216,0.1249,0.1258,0.1264,0.1296,0.1304,0.131,0.1318,0.1334,0.1339,0.1376,0.1406,0.1364,0.1365,0.1444,0.1447,0.1449,0.1489,0,0,0,0,0,0,0.1175,0.1181,0.1197,0.1209,0.1217,0.1251,0.1257,0.1264,0.1298,0.1302,0.1331,0.1335,0.1335,0.1374,0.1377,0.1407,0.1366,0.1442,0.1445,0.1448,0.1486,0.1492,0.1498,0,0,0,0,0,0.1172,0.1184,0.1198,0.1204,0.1235,0.1252,0.1256,0.1281,0.1298,0.1314,0.1339,0.1336,0.1394,0.1376,0.1379,0.141,0.1441,0.1444,0.1448,0.1483,0.1491,0.1498,0,0,0,0,0,0,0.1166,0.119,0.1205,0.1225,0.1247,0.126,0.1281,0.1296,0.1327,0.1342,0.1349,0.1355,0.1401,0.14,0.138,0.1445,0.1419,0.1423,0.1445,0.1453,0.1459,0.1459,0.1367,0,0,0,0,0,0.1172,0.1191,0.1211,0.1232,0.1245,0.1269,0.1284,0.1302,0.1325,0.1341,0.1362,0.1388,0.1412,0.1429,0.1447,0.1476,0.1478,0.1501,0.1507,0.1512,0.1517,0.1553,0.1563,0.146,0.146,0.146,0,0,0.1175,0.1192,0.1204,0.1233,0.1254,0.1273,0.1281,0.1313,0.1337,0.1341,0.139,0.1411,0.1426,0.1464,0.1485,0.147,0.1541,0.1517,0.1521,0.1522,0.1558,0.1568,0.1576,0.1463,0.1462,0.1462,0,0,0.1182,0.1209,0.1226,0.1245,0.1282,0.1295,0.1311,0.1342,0.1369,0.141,0.1424,0.1465,0.1499,0.1516,0.1527,0.1578,0.1574,0.1591,0.162,0.1656,0.1665,0.1672,0.1678,0.1686,0.1592,0.1592,0.1592,0,0.119,0.121,0.1234,0.1255,0.1275,0.1308,0.133,0.1356,0.1398,0.1425,0.1435,0.1509,0.1522,0.1568,0.1589,0.1591,0.1603,0.1589,0.1663,0.1671,0.1678,0.1682,0.169,0.1594,0.1594,0.1594,0.1594,0,0.12,0.1228,0.1241,0.1279,0.1303,0.1329,0.1364,0.1402,0.1441,0.147,0.1538,0.1564,0.1608,0.1622,0.1621,0.1682,0.167,0.1667,0.1642,0.1691,0.1692,0.17,0.1598,0.1597,0.1596,0.1596,0,0,0.1188,0.1239,0.1247,0.1269,0.132,0.1337,0.1387,0.1435,0.1478,0.1532,0.1586,0.1638,0.1667,0.1682,0.1696,0.1726,0.1781,0.1723,0.1724,0.1722,0.1848,0.171,0.1705,0.1798,0.18,0.1801,0.1825,0,0.1194,0.123,0.1257,0.1298,0.132,0.1366,0.1406,0.1459,0.1513,0.1574,0.1623,0.1683,0.1686,0.172,0.1754,0.1781,0.1806,0.1774,0.1806,0.1807,0.1673,0.171,0.1807,0.1831,0.1832,0.1834,0.1835,0,0.1189,0.1218,0.1257,0.1312,0.1328,0.1362,0.1438,0.1479,0.1567,0.1614,0.1684,0.1725,0.1791,0.1784,0.1855,0.184,0.185,0.186,0.1862,0.1723,0.1683,0.1775,0.1848,0.1847,0.1846,0.1845,0.1844,0,0.1157,0.1214,0.1247,0.1267,0.1335,0.1373,0.1417,0.15,0.1545,0.165,0.1697,0.1778,0.1831,0.1869,0.1897,0.189,0.1958,0.1945,0.1825,0.1815,0.1914,0.1906,0.1989,0.1989,0.1989,0.1989,0.1989,0,0.1136,0.1166,0.1242,0.1259,0.131,0.1366,0.1431,0.1492,0.158,0.1633,0.1722,0.1768,0.186,0.1906,0.1918,0.1889,0.1977,0.1831,0.1816,0.1928,0.1922,0.1918,0.191,0.199,0.199,0.1989,0.1989,0,0.1091,0.114,0.1183,0.1266,0.1296,0.1336,0.1429,0.147,0.1567,0.1639,0.1676,0.1785,0.1838,0.1894,0.1954,0.1898,0.1893,0.1859,0.1968,0.1958,0.1718,0.1712,0.172,0.1715,0.1712,0.1708,0.1706,0,0.1067,0.1088,0.118,0.1209,0.1253,0.132,0.1361,0.1458,0.1497,0.1628,0.1648,0.1743,0.1799,0.1765,0.1837,0.1836,0.1816,0.1792,0.1758,0.1708,0.1693,0.1693,0.1692,0.1699,0.1698,0.1697,0.1696,0,0.1024,0.107,0.1107,0.1167,0.1218,0.1259,0.1325,0.134,0.1446,0.1548,0.1574,0.1597,0.1648,0.168,0.1691,0.1691,0.1797,0.1751,0.1759,0.1726,0.1683,0.1672,0.1676,0.1683,0.1685,0.1686,0.1687,0,0.0997,0.1011,0.1066,0.111,0.1168,0.118,0.122,0.1252,0.1297,0.1431,0.1437,0.1534,0.1631,0.1605,0.1619,0.1603,0.1575,0.1513,0.1533,0.1549,0.1481,0.14,0.13,0,0,0,0,0,0.0964,0.0968,0.1002,0.1036,0.1088,0.1118,0.1187,0.1226,0.1324,0.1301,0.136,0.1395,0.1411,0.1463,0.1412,0.1545,0.1586,0.1477,0.1527,0.1608,0.1624,0.1559,0,0,0,0,0,0,0.0939,0.0969,0.0974,0.0966,0.0975,0.1012,0.1049,0.1113,0.1098,0.1207,0.1224,0.1303,0.1344,0.1429,0.1387,0.14,0.1397,0.1537,0.1532,0.1599,0.1613,0.1626,0.1565,0,0,0,0,0]},{"header":{"parameterUnit":"m.s-1","parameterCategory":2,"la1":30.2991,"la2":30.254,"lo1":-89.0895,"lo2":-89.0444,"dy":0.0017,"dx":0.0017,"nx":28,"ny":28,"refTime":"2025-12-20T09:00:00:Z","depth":"4","parameterNumber":3,"parameterNumberName":"V-component_of_CURRENTS"},"data":[0,0,0,0,0,0,0,0,0,0,0,0,0,0,0,0,0,0,0,0,0,0,0,0,0,0,0,0,0,0,0,0,0,0,0,0,0,0,0,0,0,0,0,0,0,0,0,0,0,0,0,0,0,0,0,0,0,0,0.017,0.017,0,0.0176,0.0176,0.0176,0.0176,0.0176,0.0176,0.0176,0.0175,0.0175,0.0175,0,0,0,0,0,0,0,0,0,0,0,0,0,0.0145,0.0145,0.017,0.017,0.017,0.0176,0.0176,0.0176,0.0176,0.0176,0.0176,0.0176,0.0175,0.0175,0.0175,0,0,0,0,0,0,0,0,0,0,0,0,0,0.0153,0.0146,0.017,0.0171,0.0172,0.0176,0.0176,0.0176,0.0176,0.0176,0.0176,0.0176,0.0175,0.0175,0.0175,0.0175,0,0,0.0175,0.0175,0,0,0,0,0,0,0,0,0.0153,0.0154,0.0171,0.0171,0.0172,0.0176,0.0167,0.0176,0.0176,0.0174,0.0176,0.0176,0.0175,0.0175,0.0175,0.0175,0.0175,0.0175,0.0175,0.0175,0.0175,0,0,0,0,0,0,0,0.0152,0.0154,0.0172,0.0171,0.0171,0.0168,0.0169,0.0169,0.0174,0.0174,0.0174,0.0176,0.0175,0.0175,0.0175,0.0175,0.0175,0.0175,0.0175,0.0175,0.0181,0.0182,0,0,0,0,0,0,0.0154,0.0153,0.0171,0.0172,0.0163,0.0168,0.0169,0.0174,0.0174,0.0174,0.0176,0.0176,0.0176,0.0175,0.0175,0.019,0.0175,0.0175,0.0175,0.0181,0.0181,0.0182,0,0,0,0,0,0,0.0153,0.0155,0.0171,0.0163,0.0165,0.0169,0.0174,0.0174,0.0178,0.0176,0.0176,0.018,0.0175,0.0175,0.0181,0.0189,0.0175,0.0175,0.0181,0.0181,0.0182,0.0209,0,0,0,0,0,0,0.0153,0.0155,0.016,0.0163,0.0166,0.0177,0.0174,0.0174,0.0179,0.0179,0.0179,0.0178,0.0175,0.0181,0.0181,0.0189,0.0175,0.0181,0.0181,0.0181,0.0208,0.021,0.0212,0,0,0,0,0,0.0152,0.0159,0.016,0.0162,0.0171,0.0178,0.0178,0.018,0.0179,0.0183,0.0184,0.0179,0.0183,0.0181,0.0181,0.0189,0.0181,0.0181,0.0181,0.0207,0.021,0.0212,0,0,0,0,0,0,0.0151,0.016,0.0161,0.0171,0.0175,0.0178,0.0182,0.0183,0.0186,0.0187,0.0183,0.0183,0.0191,0.0185,0.0183,0.0191,0.018,0.018,0.0199,0.0202,0.0204,0.0208,0.0175,0,0,0,0,0,0.0153,0.0162,0.0167,0.0175,0.0178,0.018,0.0183,0.0185,0.0188,0.0189,0.0191,0.019,0.0192,0.0193,0.0193,0.0199,0.0183,0.0202,0.0204,0.0206,0.0209,0.0191,0.0192,0.0183,0.0183,0.0183,0,0,0.0156,0.0162,0.0166,0.0176,0.0179,0.0189,0.0182,0.0189,0.0199,0.0189,0.0203,0.0199,0.0195,0.0203,0.0205,0.02,0.02,0.0207,0.0209,0.021,0.0192,0.0193,0.0194,0.0183,0.0183,0.0183,0,0,0.0165,0.017,0.0179,0.0185,0.0193,0.0196,0.0199,0.0205,0.0209,0.0219,0.0215,0.0216,0.022,0.0219,0.0218,0.0231,0.0212,0.023,0.0246,0.0229,0.023,0.023,0.0208,0.0206,0.0232,0.0232,0.0232,0,0.0167,0.0182,0.0182,0.0194,0.0204,0.0201,0.0215,0.0219,0.0227,0.0234,0.0227,0.0233,0.0228,0.0236,0.0241,0.0236,0.0221,0.0238,0.0232,0.0232,0.0232,0.0209,0.0207,0.0233,0.0233,0.0233,0.0233,0,0.0184,0.0196,0.0203,0.0219,0.0228,0.0239,0.0246,0.0255,0.0259,0.0263,0.0272,0.0261,0.0265,0.0261,0.0256,0.0257,0.0244,0.0237,0.0226,0.0235,0.021,0.0207,0.0235,0.0234,0.0234,0.0234,0,0,0.0189,0.0211,0.0214,0.0228,0.0244,0.0254,0.0272,0.0289,0.0305,0.0302,0.0316,0.0312,0.0304,0.0301,0.029,0.0274,0.0258,0.0258,0.0257,0.0237,0.0216,0.0207,0.0203,0.0251,0.025,0.025,0.0197,0,0.0204,0.023,0.0238,0.0268,0.0283,0.0292,0.0311,0.0325,0.0334,0.0346,0.033,0.0339,0.032,0.0321,0.0302,0.0275,0.0252,0.0273,0.021,0.0208,0.02,0.02,0.0249,0.0195,0.0194,0.0194,0.0193,0,0.0219,0.0236,0.0265,0.0298,0.0306,0.0325,0.0358,0.0376,0.0389,0.0394,0.0393,0.0381,0.0366,0.0342,0.0292,0.0307,0.0263,0.0232,0.023,0.0211,0.0194,0.0185,0.0188,0.0188,0.0188,0.0189,0.0189,0,0.0225,0.0257,0.0282,0.0294,0.0328,0.0347,0.0368,0.0392,0.0416,0.0425,0.0436,0.0414,0.0406,0.0352,0.0293,0.0292,0.0227,0.0217,0.0163,0.0162,0.0173,0.0173,0.0169,0.0169,0.0169,0.0169,0.017,0,0.0237,0.0259,0.0289,0.0306,0.0344,0.0363,0.0406,0.0423,0.045,0.0482,0.0462,0.047,0.0408,0.0366,0.0301,0.0227,0.0231,0.0165,0.0149,0.0185,0.0187,0.017,0.0171,0.0167,0.0168,0.0168,0.0169,0,0.0239,0.0258,0.0291,0.0331,0.0349,0.0377,0.0434,0.0464,0.0486,0.0522,0.0526,0.0512,0.0465,0.0391,0.0305,0.0244,0.0168,0.0135,0.0177,0.0165,0.011,0.0112,0.0073,0.0072,0.0071,0.0071,0.007,0,0.0241,0.0258,0.0309,0.0335,0.0356,0.0403,0.0439,0.0479,0.0513,0.0549,0.0564,0.0536,0.0513,0.0386,0.0306,0.0178,0.0155,0.0104,0.0107,0.0112,0.01,0.0104,0.0108,0.0069,0.0069,0.0069,0.0069,0,0.0245,0.0264,0.0293,0.0345,0.0388,0.0438,0.0491,0.0516,0.0565,0.0584,0.0595,0.0541,0.0486,0.0392,0.0292,0.02,0.0134,0.0098,0.0098,0.01,0.0107,0.0098,0.0102,0.0067,0.0067,0.0067,0.0067,0,0.0249,0.0266,0.0306,0.0353,0.0406,0.0457,0.0487,0.0531,0.0566,0.0604,0.0608,0.0555,0.0533,0.0403,0.0313,0.0222,0.0195,0.0149,0.0147,0.0148,0.0185,0.0207,0.0183,0,0,0,0,0,0.0251,0.0272,0.0312,0.0364,0.0417,0.045,0.0516,0.0545,0.0589,0.0599,0.0606,0.0558,0.0444,0.04,0.0308,0.0289,0.0169,0.0174,0.0112,0.0055,0.0058,0.0088,0,0,0,0,0,0,0.0253,0.0288,0.0306,0.0364,0.04,0.0461,0.0503,0.0538,0.0545,0.0577,0.0522,0.0513,0.0405,0.0494,0.0299,0.0275,0.0216,0.0131,0.0128,0.0054,0.0056,0.0058,0.009,0,0,0,0,0]}]]